To NAV CANADA Home Page Login to a new session Search on AWWS site Feedback and Comments Disclaimer Vers la page française équivalente Tips FAQ What's new on the site To the Forecasts and Observations / NOTAM section To "File a Flight Plan" website Publications and other links Update of the User's profile FIC Telephone Numbers My Weather Data Folder Route Weather Data Regional Weather Data Local Weather Data To the Forecasts and Observations / NOTAM section
Request Generated 02/23/2017 at 20:46:33 UTC . Weather information available at that time is displayed.

METAR/TAF

KINDERSLEY/KINDERSLEY REGIONAL/SK    

METAR CYKY 232000Z 26010KT 15SM BKN030 M02/M10 A3006 RMK SC7 SLP218=
METAR CYKY 231900Z 28008KT 15SM OVC030 M03/M09 A3008 RMK SC8 SLP227=
METAR CYKY 231800Z 28008KT 15SM OVC030 M03/M09 A3009 RMK SC8 SLP229=

CYKY - No TAF is issued for this station

Your time UTC time
Weather data provided by Environment Canada and NAV CANADA